Location: Colonia Mina de C?rbuni
(46.1667°N, 22.7167°E)
Time: 03:40:01
(UTC+00:00)

Tiangong - Visible Passes

Search period start: 28 February 2024 00:00
Search period end: 09 March 2024 00:00
Orbit: 375 x 385 km, 41.5° (Epoch: 27 February)

Date Brightness Start Highest point End Pass type
(mag) Time Alt. Az. Time Alt. Az. Time Alt. Az.
28 Feb 0.6 18:16:38 10° SSW 18:17:05 12° SSW 18:17:05 12° SSW visible
29 Feb -0.1 17:16:13 10° SSW 17:18:05 15° SSE 17:19:03 13° SE visible
01 Mar -0.8 17:50:31 10° SW 17:53:01 26° S 17:53:01 26° S visible
02 Mar -0.3 16:49:40 10° SSW 16:52:02 20° SSE 16:54:26 10° ESE visible
02 Mar 0.0 18:25:28 10° WSW 18:26:51 21° SW 18:26:51 21° SW visible
03 Mar -1.0 17:24:15 10° WSW 17:27:03 31° S 17:28:28 21° SE visible
04 Mar -1.1 17:59:13 10° WSW 18:02:04 33° S 18:02:05 33° S visible
05 Mar -1.0 16:57:48 10° WSW 17:00:40 33° S 17:03:31 10° ESE visible
05 Mar 0.3 18:34:22 10° WSW 18:35:38 18° SW 18:35:38 18° SW visible
06 Mar -0.8 17:32:44 10° WSW 17:35:31 30° S 17:37:02 20° SE visible
07 Mar -0.2 18:07:55 10° WSW 18:10:14 19° SSW 18:10:29 19° SSW visible
08 Mar -0.4 17:06:02 10° WSW 17:08:41 25° SSW 17:11:19 10° SE visible
